Thomson, GA

8:15 AM EST on December 08, 2019 (GMT -0500)
Thomson-McDuffie County

Weather History for KHQU - November, 2019

Change the Weather History Date:

Saturday, November 16, 2019

  Actual Average (WUND) Record (WUND)
Temperature  
Mean Temperature 48 °F -  
Max Temperature 55 °F - - (-1)
Min Temperature 42 °F - - (-1)
Degree Days  
Heating Degree Days 16    
Moisture  
Dew Point 40 °F    
Average Humidity 75    
Maximum Humidity 95    
Minimum Humidity 51    
Precipitation  
Precipitation 0.49 in - - ()
Sea Level Pressure  
Sea Level Pressure 30.03 in    
Wind  
Wind Speed 9 mph (ENE)    
Max Wind Speed 15 mph    
Max Gust Speed 24 mph    
Visibility 9 miles    
Events Rain    
Averages and records for this station are not official NWS values.
T = Trace of Precipitation, MM = Missing Value Source: NWS Daily Summary

Daily Weather History Graph

Daily Weather History Graph

Search for Another Location

Airport or City:

Astronomy

Nov. 16, 2019 Rise Set
Actual Time 7:02 AM EST 5:26 PM EST
Civil Twilight 6:35 AM EST 5:53 PM EST
Nautical Twilight 6:05 AM EST 6:23 PM EST
Astronomical Twilight 5:36 AM EST 6:52 PM EST
Moon 9:03 PM EST (11/16) 10:49 AM EST (11/16)
Length of Visible Light 11h 17m
Length of Day
10h 24m
Waning Gibbous, 82% of the Moon is Illuminated
Nov 16
Waning Gibbous
Nov 19
Last Quarter
Nov 26
New
Dec 4
First Quarter
Dec 12
Full

Hourly Weather History & Observations

Time (EST) Temp. Windchill Dew Point Humidity Pressure Visibility Wind Dir Wind Speed Gust Speed Precip Events Conditions
12:15 AM 43.2 °F 37.9 °F 41.2 °F 93% 30.02 in 10.0 mi East 9.2 mph - 0.01 in Rain Light Rain
12:35 AM 43.5 °F 37.5 °F 41.2 °F 91% 30.01 in 10.0 mi East 11.5 mph - 0.02 in Rain Rain
12:55 AM 43.7 °F 40.3 °F 41.2 °F 91% 30.02 in 10.0 mi ESE 5.8 mph - 0.02 in Rain Light Rain
1:15 AM 43.2 °F 37.9 °F 41.2 °F 93% 30.00 in 7.0 mi ENE 9.2 mph - 0.06 in Rain Rain
1:35 AM 43.0 °F 37.2 °F 41.0 °F 93% 29.99 in 7.0 mi East 10.4 mph - 0.10 in Rain Rain
1:55 AM 42.8 °F 38.0 °F 41.0 °F 93% 30.00 in 5.0 mi East 8.1 mph - 0.15 in Rain Rain
2:15 AM 42.4 °F 37.5 °F 41.2 °F 95% 29.99 in 7.0 mi East 8.1 mph 16.1 mph 0.05 in Rain Rain
2:35 AM 43.0 °F 36.8 °F 41.0 °F 93% 29.99 in 7.0 mi East 11.5 mph 19.6 mph 0.11 in Rain Rain
2:55 AM 43.2 °F 37.9 °F 41.0 °F 92% 29.98 in 7.0 mi East 9.2 mph - 0.14 in Rain Rain
3:15 AM 43.2 °F 37.0 °F 40.6 °F 91% 29.98 in 10.0 mi East 11.5 mph 19.6 mph 0.01 in Rain Light Rain
3:35 AM 42.8 °F 36.6 °F 40.6 °F 92% 29.98 in 5.0 mi East 11.5 mph 19.6 mph 0.02 in Rain Light Rain
3:55 AM 42.4 °F 36.5 °F 41.0 °F 95% 29.99 in 7.0 mi ENE 10.4 mph 16.1 mph 0.05 in Rain Rain
4:15 AM 42.3 °F 36.3 °F 41.0 °F 95% 29.98 in 7.0 mi ENE 10.4 mph - 0.03 in Rain Rain
4:35 AM 42.4 °F 37.0 °F 40.3 °F 92% 29.99 in 4.0 mi ENE 9.2 mph - 0.06 in Rain Rain
4:55 AM 42.4 °F 38.1 °F 40.3 °F 92% 29.99 in 7.0 mi ENE 6.9 mph - 0.09 in Rain Rain
5:15 AM 42.6 °F 39.0 °F 40.6 °F 93% 30.00 in 10.0 mi ENE 5.8 mph - 0.01 in Rain Light Rain
5:35 AM 43.2 °F 40.5 °F 40.5 °F 90% 30.00 in 10.0 mi ENE 4.6 mph - 0.02 in Rain Light Rain
5:55 AM 43.3 °F 39.9 °F 40.1 °F 88% 30.01 in 10.0 mi East 5.8 mph - 0.02 in   Overcast
6:15 AM 43.9 °F 40.5 °F 39.6 °F 85% 30.01 in 10.0 mi ENE 5.8 mph - N/A   Light Drizzle
6:35 AM 43.7 °F 39.7 °F 40.1 °F 87% 30.02 in 10.0 mi NE 6.9 mph - N/A Rain Light Rain
6:55 AM 42.6 °F 37.2 °F 40.1 °F 91% 30.03 in 3.0 mi East 9.2 mph - 0.01 in Rain Light Rain
7:15 AM 42.3 °F 35.9 °F 40.3 °F 93% 30.03 in 7.0 mi ENE 11.5 mph - N/A Rain Light Rain
7:35 AM 42.4 °F 36.5 °F 40.5 °F 93% 30.04 in 5.0 mi East 10.4 mph - N/A Rain Light Rain
7:55 AM 42.3 °F 35.5 °F 40.8 °F 95% 30.04 in 5.0 mi East 12.7 mph 19.6 mph 0.01 in Rain Heavy Rain
8:15 AM 42.4 °F 36.1 °F 40.8 °F 94% 30.04 in 5.0 mi East 11.5 mph 17.3 mph N/A Rain Rain
8:35 AM 43.7 °F 40.3 °F 40.5 °F 88% 30.04 in 10.0 mi East 5.8 mph - N/A   Overcast
8:55 AM 44.2 °F 41.0 °F 41.0 °F 88% 30.05 in 10.0 mi ENE 5.8 mph - N/A   Overcast
9:15 AM 44.8 °F 41.0 °F 40.6 °F 85% 30.04 in 10.0 mi ENE 6.9 mph - N/A   Overcast
9:35 AM 47.5 °F - 39.7 °F 75% 30.04 in 10.0 mi East 9.2 mph - N/A   Mostly Cloudy
9:55 AM 49.1 °F - 38.3 °F 66% 30.05 in 10.0 mi East 10.4 mph 19.6 mph N/A   Overcast
10:15 AM 50.0 °F - 38.5 °F 65% 30.05 in 10.0 mi East 8.1 mph - N/A   Overcast
10:55 AM 52.0 °F - 38.1 °F 59% 30.05 in 10.0 mi East 12.7 mph 20.7 mph N/A   Overcast
11:15 AM 52.2 °F - 37.2 °F 57% 30.05 in 10.0 mi East 15.0 mph 24.2 mph N/A   Overcast
11:35 AM 52.9 °F - 37.4 °F 56% 30.05 in 10.0 mi ENE 11.5 mph 21.9 mph N/A   Overcast
11:55 AM 54.0 °F - 38.1 °F 55% 30.05 in 10.0 mi East 10.4 mph 17.3 mph N/A   Overcast
12:15 PM 54.1 °F - 37.6 °F 54% 30.04 in 10.0 mi ENE 12.7 mph 19.6 mph N/A   Overcast
12:35 PM 54.7 °F - 37.4 °F 52% 30.03 in 10.0 mi NE 11.5 mph - N/A   Overcast
12:55 PM 54.3 °F - 37.9 °F 54% 30.03 in 10.0 mi East 12.7 mph - N/A   Overcast
1:15 PM 55.2 °F - 38.5 °F 53% 30.02 in 10.0 mi East 9.2 mph - N/A   Overcast
1:35 PM 55.4 °F - 38.1 °F 52% 30.01 in 10.0 mi ENE 9.2 mph - N/A   Overcast
1:55 PM 55.8 °F - 37.9 °F 51% 30.01 in 10.0 mi East 12.7 mph - N/A   Overcast
2:15 PM 55.4 °F - 39.2 °F 54% 30.01 in 10.0 mi East 9.2 mph - N/A   Overcast
2:35 PM 53.2 °F - 41.0 °F 63% 30.01 in 10.0 mi ENE 10.4 mph 18.4 mph N/A   Overcast
2:55 PM 52.7 °F - 41.4 °F 65% 30.01 in 10.0 mi East 11.5 mph 19.6 mph N/A   Overcast
3:15 PM 52.0 °F - 43.0 °F 71% 30.02 in 10.0 mi East 13.8 mph 21.9 mph N/A   Overcast
3:35 PM 51.1 °F - 45.0 °F 80% 30.02 in 10.0 mi NE 8.1 mph - N/A   Overcast
3:55 PM 51.8 °F - 44.8 °F 77% 30.02 in 10.0 mi ENE 8.1 mph - N/A   Overcast
4:15 PM 52.3 °F - 44.8 °F 75% 30.01 in 10.0 mi East 9.2 mph - N/A   Overcast
4:35 PM 52.9 °F - 43.7 °F 71% 30.02 in 10.0 mi East 8.1 mph - N/A   Overcast
4:55 PM 52.9 °F - 43.3 °F 70% 30.02 in 10.0 mi ESE 8.1 mph - N/A   Overcast
5:15 PM 52.5 °F - 42.8 °F 70% 30.02 in 10.0 mi East 5.8 mph - N/A   Overcast
5:35 PM 52.3 °F - 42.8 °F 70% 30.03 in 10.0 mi ENE 3.5 mph - N/A   Overcast
5:55 PM 52.0 °F - 43.3 °F 72% 30.03 in 10.0 mi Calm Calm - N/A   Overcast
6:15 PM 51.6 °F - 44.1 °F 75% 30.04 in 10.0 mi East 4.6 mph - N/A   Overcast
6:55 PM 51.8 °F - 42.4 °F 70% 30.04 in 10.0 mi East 5.8 mph - N/A   Overcast
7:15 PM 52.2 °F - 41.0 °F 66% 30.05 in 10.0 mi East 5.8 mph - N/A   Overcast
7:35 PM 51.8 °F - 39.9 °F 64% 30.05 in 10.0 mi East 6.9 mph - N/A   Overcast
7:55 PM 51.4 °F - 40.1 °F 65% 30.06 in 10.0 mi ENE 4.6 mph - N/A   Overcast
8:15 PM 50.5 °F - 39.7 °F 66% 30.05 in 10.0 mi ENE 6.9 mph - N/A   Mostly Cloudy
8:35 PM 50.0 °F - 38.7 °F 65% 30.06 in 10.0 mi ENE 5.8 mph - N/A   Scattered Clouds
9:15 PM 49.5 °F - 36.9 °F 62% 30.06 in 10.0 mi East 8.1 mph - N/A   Scattered Clouds
9:35 PM 48.9 °F - 35.8 °F 61% 30.06 in 10.0 mi East 6.9 mph - N/A   Clear
9:55 PM 48.9 °F - 34.5 °F 58% 30.06 in 10.0 mi East 8.1 mph - N/A   Clear
10:15 PM 48.7 °F - 33.6 °F 56% 30.06 in 10.0 mi East 9.2 mph - N/A   Clear
10:35 PM 48.2 °F - 33.3 °F 56% 30.06 in 10.0 mi ENE 6.9 mph - N/A   Clear
10:55 PM 48.0 °F - 32.7 °F 55% 30.06 in 10.0 mi East 10.4 mph - N/A   Clear
11:35 PM 47.1 °F - 32.2 °F 56% 30.05 in 10.0 mi East 6.9 mph - N/A   Clear
11:55 PM 46.8 °F - 32.0 °F 57% 30.05 in 10.0 mi East 9.2 mph - N/A   Clear